Theta_e
323 324 326 330 330 335 341 342 343 347 349 354 359 360 362 362 359 359 353 349 348 348 347 343 343 343 341 343 345 347 348 351 352 350 349 350 353 354 353 352 353 354 353 353
323 324 325 328 332 335 341 341 341 348 351 357 357 353 359 357 357 357 359 355 352 351 348 345 346 344 342 342 344 348 350 353 352 349 348 350 352 354 353 352 353 354 352 352
325 324 326 329 332 337 342 340 339 341 350 343 341 353 356 353 354 357 356 355 354 352 349 347 347 346 344 343 345 348 351 354 353 351 354 353 355 352 354 353 353 353 352 351
326 325 327 332 336 337 338 337 337 339 341 348 345 358 362 354 361 360 359 357 355 353 352 347 347 347 345 344 345 348 352 354 354 354 354 353 351 350 352 351 350 352 352 352
326 325 328 333 335 333 335 337 337 335 337 347 348 353 358 351 357 362 360 358 356 353 352 347 347 348 346 345 345 348 351 355 354 354 356 354 354 351 354 353 354 353 354 353
327 326 331 333 334 333 336 336 338 336 335 340 350 348 355 360 354 358 358 358 356 354 352 350 348 348 347 346 346 347 352 355 355 356 355 356 349 353 351 353 354 353 351 352
330 330 332 331 334 334 336 337 338 338 336 336 342 348 359 351 350 352 352 352 354 355 355 353 351 350 349 346 345 347 352 355 356 355 356 356 356 355 356 354 353 353 352 349
330 333 330 332 334 335 335 334 335 337 333 332 333 350 353 348 347 345 345 346 349 351 354 353 352 350 350 347 346 347 353 356 357 356 356 356 357 354 350 353 349 349 350 351
328 327 326 326 329 328 334 333 331 331 332 331 342 351 346 346 348 346 343 343 346 352 354 353 352 351 351 349 348 349 353 356 358 357 357 357 358 357 350 350 351 352 350 356
327 327 325 324 325 326 328 330 332 331 335 333 344 351 350 349 347 344 341 341 342 347 352 352 349 351 352 352 350 351 353 356 358 358 358 357 357 358 357 352 352 348 350 350
324 326 325 323 326 328 328 330 330 331 332 334 340 352 347 347 342 343 338 337 338 341 343 347 347 345 350 351 351 352 353 356 358 358 357 357 357 358 358 355 354 353 353 353
323 324 326 324 324 324 326 328 330 332 333 332 333 352 341 342 341 339 337 334 333 334 338 340 339 338 334 336 343 353 351 355 355 356 356 357 357 357 357 357 355 354 353 353
322 322 327 325 323 323 325 327 328 329 330 334 333 355 341 339 340 337 336 333 332 331 331 334 334 335 334 332 333 341 346 347 350 356 356 356 357 357 356 356 356 354 354 353
320 321 324 325 325 323 324 324 325 327 330 332 335 347 343 340 340 337 335 334 334 332 332 330 331 331 332 331 331 331 336 338 344 353 352 355 356 357 356 355 355 356 354 354
321 321 321 322 320 321 323 322 321 324 327 329 343 345 342 341 339 337 335 334 334 333 332 331 330 330 331 333 332 331 329 333 340 347 352 352 353 354 356 356 355 356 356 355
321 322 322 321 319 319 319 320 320 320 323 327 342 341 337 336 337 336 334 333 332 331 329 328 328 328 329 331 332 333 328 328 331 334 338 343 352 353 355 355 355 356 355 356
322 321 323 322 320 319 320 320 320 321 321 325 341 338 335 335 335 334 332 330 329 327 327 326 325 323 323 326 328 331 331 328 329 326 329 332 335 341 350 354 355 356 355 356
319 320 321 321 322 321 320 320 319 319 322 326 337 335 334 332 330 328 328 327 325 324 323 322 322 321 321 321 321 323 330 331 330 329 327 326 329 332 336 343 353 353 355 355
316 319 319 319 321 320 321 321 321 322 325 326 334 332 331 329 328 328 324 323 322 321 320 319 318 317 318 320 319 320 321 327 331 331 330 329 328 330 332 336 338 343 351 353
316 317 320 320 318 319 321 320 319 320 321 324 329 331 330 329 332 330 323 319 317 316 315 315 315 316 317 317 317 318 320 320 324 327 329 330 330 327 327 329 331 334 340 347
318 319 318 318 320 320 321 320 320 321 324 323 324 325 325 325 324 321 317 316 314 314 314 313 314 314 315 315 315 317 318 320 321 321 321 325 330 331 328 327 329 330 332 336
322 322 323 321 320 319 320 319 318 325 324 322 322 322 321 319 317 316 315 315 314 313 313 313 313 313 313 313 314 315 316 318 318 319 319 320 323 328 330 329 329 328 331 333
322 321 324 320 324 322 319 320 322 321 321 320 319 317 316 315 315 315 315 314 313 313 312 312 312 312 312 312 313 314 315 315 316 316 317 319 321 323 326 330 330 328 326 329
318 318 320 319 318 319 318 317 319 318 318 316 315 314 314 314 314 314 313 313 312 312 312 311 311 311 311 312 312 313 313 314 314 315 316 317 318 320 322 324 327 328 326 324
320 319 319 318 317 317 317 317 317 315 315 314 313 313 313 313 313 313 312 312 312 312 311 311 311 310 310 310 311 311 311 312 313 314 314 315 316 318 321 322 323 327 328 325
318 320 321 320 317 317 316 317 316 316 315 313 312 312 312 311 312 311 311 311 311 311 310 311 311 310 309 309 309 309 310 311 312 313 314 314 314 316 318 320 322 323 324 324
Wind_Speed
16 13 16 20 22 21 15 15 10 14 15 13 5 13 12 22 18 18 12 13 16 16 19 21 20 17 18 18 17 16 15 16 16 14 12 10 12 7 5 4 4 6 6 6
12 17 16 15 15 13 19 17 13 12 15 15 18 16 9 10 11 14 20 15 14 10 18 22 20 20 19 18 18 17 16 16 14 14 12 2 8 7 4 6 6 7 6 5
14 14 14 13 15 12 15 13 15 13 10 14 10 14 19 18 14 14 9 16 14 13 11 19 21 21 19 19 19 19 18 17 15 12 6 4 3 6 7 8 7 9 7 6
15 13 13 13 14 18 16 16 15 13 14 12 9 3 7 16 9 7 10 10 10 13 12 19 24 22 21 20 19 20 20 18 15 11 12 10 13 9 11 11 9 8 7 8
16 12 14 16 16 16 11 9 6 12 15 18 16 6 9 15 14 11 12 13 12 14 15 18 22 23 22 22 21 20 20 18 16 14 8 11 12 9 13 15 10 6 8 7
14 11 13 16 14 15 4 9 14 13 13 12 22 8 5 7 3 18 14 13 16 15 17 17 14 22 22 23 24 23 22 20 17 16 13 9 7 7 10 14 10 9 9 9
9 12 13 9 15 11 9 13 10 11 12 12 25 14 8 9 11 12 11 11 2 10 18 17 13 16 22 26 24 25 24 22 21 19 16 14 10 6 1 5 9 11 13 14
13 16 10 12 18 10 16 19 12 12 14 14 19 11 10 18 17 13 12 12 10 7 9 13 14 23 21 21 25 22 26 23 22 21 20 17 15 13 11 11 12 10 13 10
14 10 10 4 10 9 18 20 23 12 15 14 11 15 13 15 18 13 9 9 8 9 12 13 11 18 19 29 27 25 23 24 22 22 21 20 18 17 15 10 10 10 8 14
3 11 14 12 10 13 13 13 18 9 16 15 16 18 15 14 10 8 11 11 10 11 15 12 9 6 20 14 27 26 23 22 20 20 20 19 19 18 16 13 12 12 9 10
10 5 11 6 13 16 12 10 11 15 16 13 11 10 15 14 11 9 9 10 11 13 12 12 13 18 17 7 24 30 24 20 17 16 18 19 19 19 18 18 16 14 13 9
2 7 10 15 6 5 12 10 14 11 16 14 11 4 9 12 13 12 10 10 11 12 13 13 18 22 22 23 24 21 19 16 22 17 17 19 18 17 19 19 18 16 16 16
2 9 7 6 7 5 11 11 12 15 16 12 16 7 9 13 12 13 12 11 11 12 14 14 19 21 23 23 22 20 17 18 15 10 18 17 18 18 19 19 18 18 17 18
5 14 10 6 8 7 16 8 12 15 12 12 11 19 16 14 14 12 12 10 11 12 12 13 16 19 18 19 19 21 16 13 18 14 9 14 16 16 18 19 16 17 17 18
5 11 5 4 3 7 2 6 7 14 16 16 16 16 18 16 15 14 12 11 10 12 13 13 13 16 16 14 15 14 20 20 14 18 10 7 4 12 12 14 17 18 19 19
4 8 5 10 6 7 8 10 8 9 9 6 17 16 10 11 14 13 12 10 11 11 12 12 14 15 16 16 17 19 25 25 17 16 17 16 12 5 11 11 14 16 19 21
6 9 6 13 11 8 14 15 12 12 10 11 13 13 17 14 12 11 11 10 10 9 10 10 11 13 14 16 17 18 17 20 21 21 18 17 15 14 10 7 10 13 14 17
5 8 8 11 7 13 0 8 8 13 8 4 14 22 20 16 13 10 8 9 8 7 8 8 10 11 12 12 13 13 12 11 11 13 15 16 17 16 16 12 9 11 12 14
5 7 7 11 9 4 6 4 5 8 9 6 14 13 17 15 14 10 8 5 5 5 7 8 9 10 9 10 12 12 11 11 11 13 14 14 14 14 14 15 13 13 11 8
7 7 7 5 12 12 17 10 4 4 9 11 13 17 17 14 12 9 10 6 6 6 7 8 9 9 9 10 11 12 12 12 12 13 13 13 12 13 12 13 15 13 12 14
7 7 10 9 7 2 8 9 4 8 5 15 12 12 11 8 9 12 8 7 6 6 7 8 10 10 10 11 11 11 11 11 12 14 14 13 13 12 11 10 10 13 13 13
6 6 6 8 13 12 11 7 5 7 5 7 7 10 8 11 8 7 6 4 4 5 6 7 7 9 12 13 13 12 12 13 15 16 17 16 15 15 15 14 14 13 12 15
5 5 4 4 4 5 5 5 8 4 8 6 8 7 7 7 5 4 2 2 3 4 6 7 9 10 11 11 13 15 15 16 17 18 19 19 18 17 17 18 18 17 14 17
7 5 4 6 8 5 3 2 5 5 7 5 5 7 5 4 4 2 1 1 4 5 7 8 9 11 13 12 13 15 18 18 19 20 21 21 20 20 18 19 19 19 16 13
5 5 6 11 7 1 6 8 8 8 5 6 5 6 5 4 4 2 2 2 4 6 7 8 10 12 14 16 17 17 18 19 22 23 22 22 22 22 22 21 21 20 19 19
5 7 6 7 8 6 8 12 13 11 9 8 8 8 6 5 4 3 4 3 4 5 9 10 10 13 15 17 19 20 20 20 21 24 24 23 23 23 24 23 22 21 23 25
Wind_Direction
200 215 211 207 211 226 215 213 191 135 144 134 121 139 190 189 179 172 177 189 189 180 169 165 171 168 164 162 166 167 169 161 169 167 177 163 177 161 161 146 116 148 130 144
184 222 209 224 219 248 261 208 163 123 165 120 176 149 207 190 186 178 170 174 192 214 168 167 170 167 169 168 170 170 171 169 182 172 195 134 145 170 161 170 141 143 147 147
209 203 222 220 212 216 246 200 132 176 164 130 150 137 185 169 197 145 169 169 177 205 192 171 175 173 169 172 174 174 176 172 187 181 179 183 174 155 163 157 156 158 159 162
229 226 195 210 205 219 206 221 164 151 187 169 152 133 202 157 113 147 169 155 191 192 227 183 173 189 174 170 177 175 180 178 183 203 163 184 201 184 182 172 148 149 169 160
211 202 189 213 217 208 232 183 242 185 220 133 165 154 309 155 151 166 164 171 186 189 212 206 186 190 176 169 176 175 180 185 184 199 220 187 214 192 160 154 140 136 163 174
233 203 199 212 220 198 46 157 198 233 238 238 155 162 210 129 98 134 155 179 167 191 187 203 220 185 186 177 174 177 182 189 193 193 205 207 240 272 150 150 154 172 167 182
214 186 185 282 201 185 197 202 192 209 216 225 169 154 158 122 74 44 32 0 146 213 181 197 183 189 203 181 184 177 180 189 197 200 202 207 217 248 296 182 197 192 224 181
185 189 185 201 246 184 209 216 209 194 204 203 204 132 129 113 93 56 32 10 2 308 199 203 221 188 198 197 184 191 173 189 198 203 206 207 209 212 221 203 238 223 198 245
185 168 120 257 241 254 195 234 235 270 218 214 124 97 122 131 109 85 55 34 16 346 302 181 204 247 225 193 189 190 186 189 200 203 203 206 208 217 215 231 220 246 247 163
335 122 187 174 223 246 264 239 242 241 257 207 138 159 151 111 83 75 46 32 24 19 7 134 198 288 250 212 189 193 195 195 202 205 204 205 208 213 217 214 226 236 254 245
311 267 161 183 207 211 213 241 252 255 254 218 155 111 111 125 105 89 62 44 38 36 31 45 51 36 19 30 340 182 192 196 200 211 208 206 209 208 210 214 213 221 235 235
261 276 169 196 68 317 301 263 235 242 231 269 293 104 85 124 119 103 82 61 54 47 46 44 41 40 23 32 14 26 36 197 202 200 210 211 208 214 207 212 212 208 221 222
319 260 146 194 191 213 242 230 270 262 269 267 254 132 147 127 111 100 93 83 74 64 55 56 50 46 41 37 23 358 19 19 3 231 199 206 210 208 220 211 213 213 209 219
290 273 272 16 4 219 205 227 239 268 245 249 273 136 159 146 129 115 100 85 86 82 79 66 62 57 52 42 37 17 8 16 3 357 358 199 203 211 215 222 221 217 219 215
279 262 255 112 0 337 31 204 219 245 259 271 118 136 162 149 140 126 122 122 102 86 78 74 71 69 61 65 62 50 31 31 13 4 347 349 265 223 228 221 220 222 221 224
258 266 254 260 194 256 249 225 245 255 266 278 103 129 159 141 139 136 133 121 102 88 75 69 62 55 62 47 43 46 41 34 29 27 5 359 9 279 221 220 227 222 225 226
277 261 217 247 219 266 250 241 228 240 223 244 168 156 158 157 148 137 128 115 102 89 75 64 63 55 39 45 37 31 47 34 31 31 21 14 2 1 341 270 238 236 236 235
248 248 245 259 157 237 28 350 231 227 177 230 71 143 161 156 142 128 117 109 97 75 62 50 46 44 32 31 32 27 21 31 40 35 26 18 12 8 349 344 313 271 255 246
258 255 229 255 215 217 164 180 192 208 178 222 133 158 143 152 150 139 121 96 86 64 51 30 27 18 15 13 13 10 6 8 9 13 11 11 11 5 356 348 332 327 299 272
217 253 284 220 259 249 62 127 153 210 250 181 160 168 160 171 191 162 138 114 82 50 31 18 360 357 7 0 355 350 347 350 355 356 351 345 348 350 348 348 339 327 307 291
209 232 228 241 257 132 99 105 126 205 67 163 165 166 163 182 56 106 112 102 80 53 28 3 359 355 356 347 342 333 331 331 332 329 330 328 324 322 323 325 319 314 307 300
215 208 219 242 249 236 132 144 213 46 103 125 134 121 157 103 125 118 110 86 51 30 6 0 351 347 338 336 333 326 321 319 316 316 314 314 314 311 307 308 305 305 305 307
267 249 267 271 45 83 145 48 99 123 119 124 124 137 145 160 142 106 87 55 23 354 344 337 337 328 322 326 324 320 319 315 309 305 303 303 302 299 298 297 300 303 306 312
196 259 246 277 229 186 184 113 169 180 154 152 160 151 174 175 150 167 214 339 339 333 330 330 326 328 324 323 313 307 310 311 306 299 295 293 291 289 286 286 284 282 285 285
262 179 228 253 262 218 248 185 194 187 177 176 168 183 189 187 199 213 267 302 313 325 320 325 321 320 318 320 316 311 307 305 302 298 293 288 284 281 280 274 273 274 272 271
219 236 256 260 351 232 244 189 192 193 199 202 200 194 203 226 228 217 258 299 307 328 321 311 318 318 315 317 311 309 306 299 293 289 288 285 283 278 275 276 276 267 266 265